Regional Weather Roundup
Issued by NWS

Home | Current Version | Previous Version | Text Only | Print | Product List | Glossary Off
Versions: 1 2 3 4 5 6 7 8 9 10 11 12 13 14 15 16 17 18 19 20 21 22 23 24 25 26 27 28 29 30 31 32 33 34 35 36 37 38 39 40 41 42 43 44 45 46 47 48 49 50

000
ASUS44 KOUN 010710
RWROK

WEATHER ROUNDUP FOR OKLAHOMA
NATIONAL WEATHER SERVICE NORMAN OK
200 AM CDT SAT OCT 01 2016

NOTE: "FAIR" INDICATES FEW OR NO CLOUDS BELOW 12,000 FEET WITH NO
      SIGNIFICANT WEATHER AND/OR OBSTRUCTIONS TO VISIBILITY.

OKZ001>007-009>012-014-015-017-010800-
NORTHWEST OKLAHOMA AND THE PANHANDLE

CITY           SKY/WX    TMP DP  RH WIND       PRES   REMARKS
GAGE             N/A     64  49  57 SE10      30.13F
GUYMON         CLEAR     56  48  74 SE3       30.10S
ENID/WOODRING  CLOUDY    59  54  82 CALM      30.11R
$$

OKZ016-021>023-033>039-044-045-010800-
SOUTHWEST OKLAHOMA

CITY           SKY/WX    TMP DP  RH WIND       PRES   REMARKS
LAWTON/REGL    CLOUDY    60  55  83 E3        30.11S
LAWTON/FT SILL CLOUDY    62  54  74 SE1       30.10S
FREDERICK      CLOUDY    64  53  67 SE8       30.08S
CLINTON        CLOUDY    62  52  69 S6        30.14S
HOBART         CLOUDY    62  54  74 SE5       30.12S
ALTUS AFB      MOCLDY    60  53  77 E2        30.10S
$$

OKZ018>020-024>031-010800-
CENTRAL OKLAHOMA

CITY           SKY/WX    TMP DP  RH WIND       PRES   REMARKS
OKLAHOMA CITY  CLOUDY    57  52  83 CALM      30.12S
OKC/WILEY POST PTCLDY    60  51  72 S3        30.12S
OKC/TINKER AFB CLOUDY    65  49  56 SW2       30.10F
STILLWATER     PTCLDY    52  50  93 NE3       30.12S
GUTHRIE        CLOUDY    58  52  80 CALM      30.11F
$$

OKZ008-013-054>072-010800-
NORTHEAST OKLAHOMA

CITY           SKY/WX    TMP DP  RH WIND       PRES   REMARKS
TULSA          CLEAR     56  53  90 CALM      30.10S
TULSA/JONES    CLEAR     53  51  93 CALM      30.11S
PONCA CITY     PTCLDY    52  48  86 CALM      30.12R
BARTLESVILLE   PTCLDY    47  46  97 CALM      30.13R
MUSKOGEE       CLEAR     54  49  83 CALM      30.11S
$$

OKZ032-040>043-046>053-073>077-010800-
SOUTH CENTRAL/SOUTHEAST OKLAHOMA

CITY           SKY/WX    TMP DP  RH WIND       PRES   REMARKS
ARDMORE/DWNTWN PTCLDY    54  50  87 CALM      30.10S
MCALESTER      PTCLDY    51  47  86 CALM      30.11R
$$





USA.gov is the U.S. government's official web portal to all federal, state and local government web resources and services.